Wind_Speed
25 26 28 29 28 25 23 21 20 19 17 15 14 16 18 18 18 17 17 18 17 17 18 19 22 23 19 18 17 17 19 20 19 18 17 16 16 16 16 15 15 14 12 13 16 18 19 20 20 20 20 18 17 15 15 15 15 15 17 17 18 19 21 21 21 21 21 20 20 20 20 20 20 21 21 21 21 21 21 21 22 22 22 23 24 25
26 28 29 26 23 21 20 20 21 20 19 16 13 14 15 16 17 16 16 16 17 17 19 19 22 24 21 19 18 19 22 22 20 19 18 18 18 17 17 16 15 15 14 15 17 18 20 20 21 21 20 19 17 16 16 15 15 16 16 16 17 19 20 20 20 21 20 20 21 21 21 22 23 23 23 23 22 22 22 23 23 23 23 23 24 24
27 30 27 22 21 21 21 22 22 21 21 19 15 14 15 16 16 16 15 16 16 17 18 20 23 25 23 22 21 20 23 23 21 20 18 18 18 18 17 16 16 17 16 16 17 18 21 21 21 21 20 19 17 17 17 16 16 15 15 15 16 18 18 18 19 20 20 20 21 22 22 23 24 24 24 23 23 23 23 23 23 23 23 23 24 24
27 26 23 22 22 23 23 23 23 22 22 21 18 16 15 16 15 14 14 15 15 17 19 21 24 27 26 24 23 21 23 24 22 21 20 18 18 17 17 17 18 19 17 18 19 20 22 22 22 21 19 19 19 18 18 17 17 16 15 15 17 18 18 19 19 20 20 21 21 22 22 23 24 23 23 23 23 22 22 22 22 22 23 24 25 25
25 19 20 24 24 23 23 23 23 22 22 21 19 18 16 15 14 13 12 12 14 15 18 19 22 27 28 25 24 22 23 24 23 22 21 20 19 18 18 18 19 19 19 19 20 22 24 24 22 21 20 19 19 19 19 19 19 18 16 17 18 18 18 18 19 19 19 19 20 20 21 22 22 22 22 22 21 21 21 21 22 23 24 25 26 26
23 18 18 23 25 24 24 23 23 22 22 21 20 20 17 14 13 13 12 11 13 13 16 16 12 17 25 23 21 21 21 23 23 22 22 20 20 21 20 19 20 20 21 21 21 23 24 23 21 20 19 19 19 20 21 21 21 20 18 18 18 17 17 17 17 18 18 18 18 19 19 20 21 21 21 20 20 20 21 22 22 23 24 24 25 26
23 22 20 20 22 24 24 23 23 23 22 22 21 20 18 17 15 14 13 12 10 9 12 12 6 11 24 25 20 20 20 20 21 21 20 19 19 20 20 20 20 21 21 21 21 22 22 21 20 20 20 21 22 23 23 23 22 20 19 18 17 17 16 16 17 17 16 16 17 18 19 19 20 20 19 18 20 21 21 22 21 21 21 22 23 24
23 25 23 20 19 22 24 24 23 23 23 23 21 18 18 18 17 15 14 13 12 12 13 15 12 12 23 28 22 21 21 19 19 19 18 19 19 20 21 20 21 21 23 23 22 22 22 22 23 23 23 24 24 23 23 22 22 21 19 19 18 17 16 16 16 16 16 16 16 17 18 19 19 18 18 19 20 20 20 19 19 19 20 21 22 22
21 23 24 21 19 21 24 23 21 22 22 22 20 17 15 14 14 14 13 13 13 14 15 17 15 10 19 30 26 23 25 21 18 17 17 19 20 20 21 21 22 23 24 24 23 24 24 24 25 25 24 24 23 23 22 22 21 20 19 19 18 17 17 17 17 17 16 16 16 17 17 17 17 18 18 18 18 18 17 16 16 17 17 18 20 21
20 20 22 23 21 21 21 21 21 21 22 22 18 15 14 11 11 10 10 11 10 11 13 14 13 8 15 32 31 27 28 24 20 19 18 19 20 21 21 21 22 23 25 25 25 25 25 25 25 24 23 22 22 22 21 21 21 19 19 19 19 18 18 18 17 16 16 16 15 15 16 16 17 17 17 16 15 15 15 14 14 15 16 18 19 20
22 19 21 23 23 20 19 20 22 21 21 20 18 15 12 9 9 8 9 10 6 8 10 11 15 11 9 25 31 27 25 22 18 16 16 17 18 19 19 19 19 21 23 25 26 25 25 25 24 23 22 21 21 21 20 20 20 19 20 20 20 19 19 18 17 17 16 16 15 15 15 16 16 16 15 14 14 14 14 14 16 18 19 20 21 22
25 21 21 23 23 21 20 21 22 22 22 21 18 16 12 7 5 6 7 6 4 4 4 6 13 16 13 19 21 17 14 13 11 10 12 15 16 17 18 17 17 18 21 23 22 22 23 23 22 21 20 19 19 20 20 19 18 19 20 21 20 20 19 18 18 17 17 16 15 15 15 15 15 15 14 14 14 15 16 17 20 22 23 24 24 24
27 24 22 21 23 23 22 22 24 23 23 22 18 16 11 4 2 3 3 3 6 6 4 5 7 14 24 28 23 18 16 14 13 13 14 15 15 14 14 15 15 16 19 20 19 20 21 20 20 19 18 18 18 18 18 17 18 19 21 21 20 19 18 18 17 17 17 16 16 15 15 15 16 15 15 15 16 18 20 23 25 26 26 26 26 25
22 23 25 24 24 26 26 26 27 27 25 23 21 18 14 5 3 3 3 2 6 7 7 8 7 13 25 27 22 20 19 21 21 16 13 13 12 12 13 14 15 16 17 18 18 18 18 18 18 18 18 18 18 17 16 17 18 19 20 19 18 18 17 16 16 16 16 16 15 15 16 16 16 16 17 19 21 23 26 27 28 28 28 27 26 26
21 18 26 29 26 25 28 29 26 25 25 24 23 22 20 15 7 4 4 3 3 2 6 10 7 10 13 9 6 4 5 12 17 16 15 14 13 14 15 15 15 15 16 17 17 18 19 19 19 19 19 18 17 16 16 17 18 18 18 18 17 16 15 14 14 15 15 15 15 16 17 18 19 20 21 23 25 27 28 29 30 30 30 29 28 28
27 20 23 28 29 25 25 28 25 22 22 24 25 24 23 21 13 5 4 4 1 2 3 9 12 19 19 16 15 12 12 11 9 8 10 11 13 15 15 16 16 17 18 17 18 20 21 21 21 20 18 17 17 18 18 17 18 18 18 17 17 15 14 13 13 14 14 15 15 16 17 19 21 22 23 25 26 28 29 30 31 32 32 30 29 29
27 25 21 22 27 28 23 25 27 25 22 23 27 28 25 21 17 9 3 2 1 2 6 9 18 30 29 27 29 26 24 21 15 13 12 11 14 16 17 17 17 17 17 16 16 19 20 20 20 19 19 20 20 19 18 18 18 18 17 16 16 15 13 13 13 13 14 15 15 17 18 20 22 23 24 26 27 29 30 30 32 34 33 32 31 31
25 23 22 20 22 28 27 24 27 28 26 24 26 29 25 18 17 14 5 1 1 2 7 11 21 29 24 21 21 13 9 11 12 15 15 15 15 16 17 17 16 16 16 15 14 15 16 17 17 19 20 21 21 19 17 17 17 16 15 15 14 13 13 13 13 14 15 16 17 19 20 21 22 23 25 27 28 30 31 32 33 35 35 34 33 33
25 18 18 21 20 23 27 26 26 30 31 29 25 24 21 13 12 14 8 1 1 2 5 8 16 25 28 28 25 18 15 14 12 12 12 14 16 16 18 18 18 18 17 15 15 14 15 16 18 20 20 20 19 19 18 16 15 15 14 13 13 12 13 13 14 16 18 19 21 23 24 24 25 26 28 29 30 32 33 33 35 36 36 36 36 35
28 18 13 18 21 22 26 30 32 34 35 32 25 21 21 15 11 15 13 6 3 3 3 4 6 16 26 28 24 21 18 13 10 10 10 12 15 17 19 21 22 22 21 19 18 17 18 20 21 21 19 18 19 19 18 17 16 15 14 15 15 15 16 17 19 21 23 25 27 29 30 31 31 32 32 32 33 33 33 33 34 36 37 38 38 38
29 23 16 16 21 23 27 32 37 38 37 35 30 25 25 22 15 13 15 15 9 4 3 2 4 14 19 15 12 9 6 5 5 8 10 11 13 15 20 23 23 25 26 24 23 23 24 24 22 19 17 18 20 20 20 19 17 18 18 18 18 18 19 21 23 25 27 29 31 32 33 34 34 34 33 33 34 35 35 34 34 34 36 37 37 38
33 27 22 19 23 28 30 32 34 35 34 35 34 33 33 32 26 14 9 19 19 9 6 3 5 23 27 19 17 16 14 15 13 10 10 11 13 17 20 22 23 27 29 29 29 28 29 28 23 19 20 22 24 24 22 20 20 20 21 20 19 19 20 22 25 28 31 33 35 35 36 36 35 34 34 34 35 36 37 36 35 35 35 34 35 36
37 30 24 22 24 26 26 27 30 31 32 33 33 36 36 36 37 26 12 15 19 14 13 5 5 29 35 24 22 19 14 12 7 4 6 8 12 15 17 19 21 26 30 31 33 32 30 28 24 23 25 26 26 25 23 22 22 23 22 21 20 20 21 24 27 30 34 37 39 40 41 41 38 36 36 36 36 37 37 38 37 36 35 33 33 34
37 32 27 23 21 23 25 27 28 27 30 34 36 38 38 37 40 36 23 16 15 17 19 7 4 31 37 27 24 18 9 7 4 5 7 6 6 9 12 17 20 24 28 31 34 34 30 27 25 26 28 26 26 25 25 25 26 25 24 23 22 24 26 29 31 33 37 40 42 43 44 43 40 40 39 39 39 38 38 38 37 36 35 33 33 34
36 33 30 18 7 10 16 19 24 30 33 37 40 41 41 40 37 34 29 20 13 19 23 12 12 35 35 22 21 15 9 8 5 4 3 0 5 8 10 15 19 22 27 30 33 33 29 26 26 25 26 26 27 28 29 29 28 26 26 25 27 29 32 34 35 38 41 43 45 46 46 44 42 42 42 41 41 40 39 37 36 36 35 34 34 34
36 37 36 24 12 9 13 17 29 40 40 39 41 41 41 40 37 35 30 20 16 24 28 23 28 43 37 24 20 15 11 10 6 5 9 11 15 18 15 14 17 19 24 29 31 28 25 24 24 24 26 28 30 32 31 30 29 28 29 30 33 36 38 39 40 42 45 47 49 49 48 46 44 43 43 43 42 42 40 38 36 36 35 35 35 34
35 38 41 39 35 33 35 36 39 39 37 38 41 42 41 39 39 37 30 26 31 33 30 35 43 49 47 39 31 25 22 21 19 19 24 25 24 23 19 15 17 18 21 25 25 22 20 21 22 24 26 29 31 32 32 32 32 33 35 37 39 40 42 43 45 46 48 50 51 51 49 47 45 43 43 42 42 42 40 39 37 37 36 36 36 35
32 36 39 43 45 46 46 44 38 34 32 35 38 40 41 40 39 40 37 38 41 32 29 44 50 48 52 49 41 38 36 34 32 31 32 30 24 21 19 17 19 20 20 21 22 22 22 22 23 26 28 30 33 34 35 37 39 40 41 42 43 44 45 47 48 50 51 52 52 51 49 46 45 43 42 41 41 40 40 39 38 38 37 37 37 37
31 33 36 40 43 45 45 42 39 37 34 33 32 33 35 37 39 42 43 45 46 39 40 50 48 46 53 51 45 44 41 39 39 36 34 31 25 23 21 20 21 21 19 20 22 24 24 25 26 29 31 34 36 39 42 43 43 44 45 45 46 48 49 50 52 52 53 53 51 49 47 46 45 43 42 40 39 39 39 39 39 39 38 38 38 39
31 32 33 35 37 40 41 41 41 41 38 36 35 32 30 31 34 38 41 43 46 48 50 50 47 49 53 49 46 44 39 37 37 35 33 32 29 29 28 27 26 25 23 23 25 27 30 32 35 37 38 39 41 44 47 47 46 46 47 48 50 51 52 53 53 53 52 51 48 47 46 45 44 43 42 40 39 39 39 38 39 39 39 39 40 40
33 33 32 32 34 35 36 37 39 40 40 39 37 34 32 31 33 37 40 40 43 48 48 47 50 53 50 46 44 40 35 34 34 33 33 32 33 34 34 34 33 33 33 34 35 39 41 43 46 47 46 46 46 47 48 48 48 48 49 51 52 53 53 53 53 51 49 47 45 44 44 43 43 42 41 41 40 40 39 39 39 39 40 40 40 40
34 34 33 31 29 33 36 34 34 37 37 36 37 37 37 38 39 41 42 40 40 42 41 43 48 51 47 42 39 36 37 38 37 37 37 35 35 36 36 36 35 34 35 37 40 44 46 47 49 49 48 47 46 45 45 46 47 49 50 51 52 53 53 53 51 49 46 44 42 42 42 42 42 42 42 42 41 41 41 40 41 41 41 41 41 41
34 35 36 31 26 31 37 32 30 28 21 25 37 40 39 41 42 42 41 40 39 39 39 42 46 46 44 43 42 42 43 43 42 42 40 38 37 36 37 37 36 35 35 36 39 42 44 45 46 46 45 45 44 44 44 46 48 48 49 50 51 52 52 50 48 45 43 42 41 41 41 41 42 42 42 42 42 42 42 42 42 42 42 43 43 43
33 34 36 32 25 28 33 28 21 15 12 23 39 42 40 41 42 42 43 43 42 42 43 45 46 45 45 46 48 48 48 47 47 46 44 43 42 41 42 42 40 40 39 38 39 40 40 42 41 42 42 42 43 45 46 47 47 48 49 50 50 49 47 46 44 43 41 40 39 40 40 40 41 41 42 42 42 43 43 43 43 43 43 44 44 44
31 34 35 32 27 25 24 18 10 9 20 37 44 40 40 40 39 39 41 43 44 44 45 46 47 48 49 49 49 50 50 50 49 47 47 46 46 46 45 44 43 43 43 42 42 41 41 41 41 41 42 43 44 45 46 47 48 49 49 47 44 43 42 41 41 41 40 39 39 39 39 40 41 41 42 43 44 44 44 44 44 44 44 44 44 45
32 33 33 33 29 23 17 14 10 11 24 36 39 41 44 43 40 39 40 44 46 45 46 48 49 49 49 48 49 49 50 50 48 48 48 47 46 46 45 44 44 43 43 43 43 43 43 43 43 43 44 44 45 45 47 48 48 46 43 39 38 39 39 40 40 40 40 39 39 39 40 41 42 43 44 45 45 46 45 45 45 45 45 46 46 46
38 36 36 33 30 28 24 22 22 21 23 32 40 46 48 45 41 38 38 43 46 44 45 46 46 47 47 45 45 45 45 46 47 47 47 46 44 44 44 44 44 43 44 44 44 45 46 46 46 46 46 46 46 47 47 44 41 38 36 36 37 38 39 39 40 40 40 40 40 41 42 43 43 43 44 44 45 45 45 45 46 46 46 47 47 47
39 39 40 35 32 34 30 23 18 13 20 38 50 51 48 44 39 33 31 38 46 45 43 43 42 43 43 41 39 38 37 40 44 44 43 41 41 42 43 44 44 45 46 46 46 46 46 46 46 46 47 47 46 44 40 36 34 34 35 36 37 38 39 40 40 40 41 41 41 42 42 43 44 44 44 45 45 45 45 45 46 46 47 48 48 49
36 37 39 35 31 33 31 22 15 14 24 40 46 43 40 36 32 26 21 31 47 47 41 39 38 38 39 37 35 34 34 38 42 42 40 38 38 40 41 42 43 45 45 46 46 45 45 45 45 45 44 43 40 37 34 33 34 35 36 37 38 39 40 40 41 41 41 41 42 42 42 43 44 44 45 45 45 45 46 46 47 47 48 49 50 50
37 36 36 34 31 31 30 25 21 24 32 38 35 29 24 17 16 14 12 22 39 38 31 29 28 28 30 29 29 31 33 36 39 38 37 37 37 37 38 39 40 41 42 43 43 43 42 41 40 39 37 35 34 34 34 34 35 36 37 38 39 39 40 41 41 42 42 43 43 43 43 44 44 45 45 46 46 47 47 48 48 49 50 50 51 52
37 38 37 37 34 31 29 24 20 25 34 36 31 24 18 10 10 16 18 23 30 29 27 27 25 25 28 26 26 29 30 31 33 34 35 36 35 35 36 37 37 37 37 37 38 37 36 35 33 33 33 33 34 34 35 35 36 36 37 37 38 39 40 41 42 42 43 44 44 44 44 44 45 46 46 47 48 49 49 50 50 51 53 53 54 55
34 33 33 37 35 32 32 27 19 23 33 36 32 31 28 21 20 27 32 33 32 32 34 33 30 30 31 29 28 28 29 30 32 33 35 36 37 37 37 36 36 35 34 34 33 32 32 31 31 31 32 33 34 35 35 36 36 36 36 37 38 39 40 41 42 43 44 44 44 45 45 46 46 47 47 48 49 50 51 52 53 54 55 56 56 56
30 27 27 34 35 31 29 22 14 20 35 38 35 35 35 31 31 35 36 35 34 35 35 32 31 30 29 29 29 28 28 30 31 33 35 37 38 39 37 36 35 33 32 31 31 31 31 31 31 31 32 33 34 34 35 35 36 36 36 37 38 39 40 42 43 44 44 45 45 46 47 47 48 49 49 50 52 53 55 55 56 56 56 57 57 58
27 27 27 31 32 27 25 23 19 24 32 32 30 31 31 30 31 30 28 28 29 30 29 29 29 28 27 28 28 28 28 29 30 32 34 35 36 36 35 33 31 30 30 30 30 31 32 32 32 31 31 32 33 34 35 35 36 36 37 38 39 41 42 44 45 45 46 47 48 49 50 50 51 52 53 54 55 57 57 58 58 58 58 58 59 59
26 28 28 29 30 27 27 28 27 27 28 28 30 32 30 28 28 26 24 25 26 26 27 27 26 26 26 27 28 29 29 29 30 32 33 33 34 33 31 30 30 30 31 31 31 32 31 31 31 31 31 32 33 34 35 36 37 38 39 40 41 43 44 46 47 48 50 51 52 53 53 54 55 56 57 58 58 59 60 60 60 61 61 61 61 62
25 27 27 27 27 27 28 29 30 30 31 32 33 34 31 28 27 25 23 23 24 24 25 25 25 26 26 27 28 29 29 29 29 30 31 30 29 28 28 28 28 28 30 30 30 30 30 31 32 32 33 35 37 38 39 39 40 41 42 43 44 45 47 49 51 53 54 55 56 57 57 58 59 59 59 59 60 61 62 63 64 64 64 64 64 64
28 28 27 26 26 27 28 31 32 33 34 34 34 35 33 29 26 25 23 22 23 24 25 25 26 26 26 26 25 24 24 25 24 23 24 24 24 23 24 25 26 27 28 29 30 31 32 34 35 36 38 39 40 41 41 41 42 43 45 47 48 50 52 54 56 58 59 59 60 60 60 60 61 61 62 62 62 63 63 64 64 65 65 65 64 64
32 31 29 29 29 30 29 28 29 29 31 32 33 34 33 31 28 26 24 22 22 22 23 24 24 24 25 25 23 22 22 23 23 24 25 25 26 27 28 28 30 31 31 32 33 34 35 36 37 38 39 40 41 42 42 43 45 46 48 50 52 54 56 57 58 59 60 61 62 62 63 63 63 64 64 64 64 64 63 63 63 63 63 63 62 63
32 32 32 31 31 32 32 31 31 30 29 29 30 31 32 31 28 25 24 23 22 22 23 24 24 25 25 26 26 26 27 28 30 31 32 32 33 33 33 33 34 34 35 35 36 36 38 39 39 40 41 42 44 44 45 47 48 50 52 54 55 57 58 59 60 61 62 63 64 64 65 65 65 65 65 65 65 64 63 62 61 62 62 60 60 60
34 35 34 32 32 35 36 36 35 34 32 30 28 28 28 28 27 26 26 27 27 27 28 28 28 29 30 30 31 31 32 32 33 34 34 35 35 35 35 36 37 37 37 38 38 39 40 41 42 44 45 46 47 49 50 51 52 53 55 56 57 58 59 60 61 62 63 64 65 65 65 65 65 65 64 64 64 64 64 62 61 60 61 60 59 58
37 37 36 35 35 36 36 33 32 32 32 32 32 31 30 30 30 30 30 29 30 30 30 29 29 29 29 30 30 31 32 32 33 33 33 34 34 35 37 37 38 38 39 39 40 41 42 44 46 47 48 50 51 52 53 53 54 54 55 56 57 58 59 60 61 62 63 64 63 63 64 64 64 64 64 63 63 63 64 64 62 61 60 60 60 59
Wind_Direction
208 210 213 214 215 215 217 219 222 226 229 230 235 238 236 234 234 233 232 236 238 240 243 244 249 251 245 240 241 243 247 245 242 240 239 239 240 239 238 238 238 236 228 227 236 239 242 245 248 251 253 254 256 259 263 267 269 269 268 267 266 265 262 262 263 265 266 267 268 269 270 271 269 267 265 265 266 268 270 271 270 270 269 267 270 273
211 215 218 218 219 220 221 223 224 224 227 229 230 230 230 230 232 233 232 235 239 243 246 249 252 252 249 243 238 240 245 248 247 246 243 241 240 239 238 240 242 241 235 234 239 243 247 249 250 253 255 256 257 259 261 262 263 263 264 265 263 261 260 261 261 262 263 264 266 266 266 265 265 265 266 267 268 268 269 269 270 270 271 272 273 275
213 219 219 216 219 219 220 224 225 225 226 229 231 230 227 226 229 232 234 237 241 247 252 256 257 254 253 250 241 238 245 249 251 252 248 242 237 236 238 241 244 244 241 241 241 243 247 250 252 254 256 258 257 257 259 260 262 263 263 261 258 257 257 256 255 255 256 258 259 260 261 262 265 267 269 271 271 272 272 274 275 276 278 280 279 280
213 219 215 214 218 218 220 222 224 226 227 230 231 230 230 229 230 232 237 241 244 251 256 262 265 258 254 254 247 240 244 247 248 251 253 250 243 239 239 238 239 242 243 243 243 244 248 252 255 258 258 256 254 254 257 261 264 264 259 253 250 250 251 251 251 251 251 253 255 258 261 263 266 270 272 274 276 277 279 280 281 282 282 281 280 280
216 216 212 214 217 218 220 221 223 225 227 230 230 229 234 235 235 236 239 242 246 254 259 268 278 268 259 258 254 246 245 247 247 248 250 252 252 251 247 243 243 247 250 250 249 249 251 253 255 256 255 252 251 253 257 259 261 261 255 250 249 250 251 251 252 253 253 255 258 261 263 265 268 271 272 273 276 277 277 276 276 278 279 281 282 283
217 214 213 216 218 218 219 220 221 222 225 229 230 230 233 234 234 236 236 243 254 261 265 272 285 274 265 263 260 252 246 246 249 249 250 252 253 254 252 250 251 253 255 256 254 252 251 251 250 251 252 249 247 249 252 255 257 259 258 254 253 252 251 251 252 254 257 259 261 264 266 268 268 269 270 271 271 271 272 273 275 277 280 281 282 284
217 214 217 219 220 220 219 219 219 220 223 227 231 231 231 231 231 234 237 246 259 266 273 272 262 275 273 265 259 258 251 245 245 246 248 248 249 251 251 250 250 252 254 253 251 250 250 251 251 253 251 247 245 246 250 254 256 258 259 256 254 252 252 254 257 259 261 263 265 266 267 267 267 268 268 267 267 269 273 276 280 283 283 282 281 281
216 213 217 219 219 220 220 219 218 218 222 228 231 232 233 235 236 239 245 249 257 265 273 271 263 278 277 265 257 259 255 250 246 243 245 246 245 246 247 247 247 249 251 251 251 252 252 253 256 257 252 247 247 249 252 254 256 257 256 255 254 255 259 262 264 265 266 268 268 268 268 268 268 268 266 266 269 272 276 279 282 284 284 285 285 285
219 217 218 219 218 220 221 219 219 217 220 226 230 231 232 233 235 239 246 250 260 268 268 265 262 265 270 266 263 263 261 256 251 249 247 248 248 247 248 249 249 249 251 253 255 255 254 254 256 255 249 246 247 250 251 252 254 255 254 254 255 260 266 267 269 271 272 274 274 273 272 270 268 267 266 269 272 275 278 280 283 285 286 288 290 292
222 220 221 222 223 224 222 218 218 217 219 223 226 229 227 223 228 233 243 252 262 267 261 260 255 245 270 270 265 265 268 265 262 263 260 255 254 253 252 251 251 252 253 253 253 252 251 252 252 249 245 243 244 246 248 250 252 252 251 252 257 264 269 272 275 278 280 281 280 277 273 269 267 267 269 271 273 274 277 280 285 290 294 297 299 299
225 222 221 221 221 223 221 217 214 214 216 219 219 216 211 212 224 230 240 249 266 269 256 251 244 233 270 275 268 267 271 272 271 271 267 260 255 256 257 255 253 250 249 250 250 249 248 248 247 245 243 241 242 245 248 250 249 247 249 253 260 267 271 274 278 282 284 286 284 278 273 270 268 269 270 270 270 272 276 284 291 296 300 303 304 304
223 222 221 220 219 215 213 213 212 211 211 211 211 207 196 190 208 227 239 229 233 263 239 221 233 226 233 260 269 273 273 275 268 252 253 258 257 260 263 262 255 246 244 246 246 244 241 241 242 242 242 241 242 245 247 249 248 247 251 256 262 267 271 275 280 282 284 284 282 277 273 271 269 269 270 268 270 275 282 290 294 298 301 303 304 304
221 223 223 220 221 216 210 207 204 205 207 207 206 198 186 156 134 229 249 219 231 245 224 207 220 231 245 258 266 268 266 267 265 256 256 259 261 265 264 258 249 240 237 236 235 237 236 237 240 240 241 240 240 242 246 250 252 252 254 257 262 267 270 275 278 280 281 280 277 275 273 270 269 270 270 272 278 284 290 294 296 299 301 302 303 304
217 224 224 220 219 216 212 208 203 203 203 205 207 197 186 154 90 239 257 296 262 250 222 219 228 252 263 271 272 267 264 260 257 251 251 255 259 258 248 240 238 232 227 226 227 232 235 236 237 237 236 236 237 243 251 257 257 255 256 258 262 266 270 274 276 277 276 274 272 272 270 269 270 271 274 280 286 290 293 296 298 300 301 302 303 303
210 220 223 218 217 215 213 213 213 215 211 208 212 209 206 200 180 207 216 202 244 229 194 202 217 252 258 262 256 256 272 262 254 245 243 249 251 246 238 232 236 237 233 233 234 236 237 234 231 230 231 235 242 254 262 263 258 255 256 259 263 265 266 269 272 273 271 270 271 271 271 272 275 278 282 287 291 295 298 301 302 302 301 301 302 303
210 220 224 218 217 217 214 213 216 218 213 208 207 210 215 216 213 206 189 195 160 53 218 211 229 251 254 254 256 262 270 268 263 252 243 239 234 232 234 238 245 250 248 243 238 235 234 231 228 229 235 246 258 266 268 260 252 249 252 255 256 255 257 261 266 270 271 272 274 274 276 279 282 286 290 294 297 300 303 305 306 303 299 298 300 301
210 220 225 219 216 216 213 212 212 211 210 208 207 210 214 217 219 215 199 229 251 293 259 234 247 260 266 270 270 269 267 263 258 256 254 244 232 226 233 243 249 250 244 235 228 227 230 232 234 240 249 261 267 268 263 251 244 244 246 247 245 242 243 247 252 258 264 268 272 276 280 283 286 290 294 296 298 300 302 305 305 301 296 295 296 297
212 216 223 220 214 214 212 210 212 214 215 213 211 214 215 215 220 218 207 30 79 266 263 244 253 264 267 267 268 264 263 266 258 253 252 244 235 230 237 246 245 236 227 221 223 227 232 238 246 256 263 267 267 263 254 244 240 239 239 239 238 238 240 244 250 257 263 270 275 280 283 285 288 292 295 296 297 297 299 300 299 296 293 292 292 294
218 214 220 218 213 213 211 209 210 214 218 220 220 217 212 208 211 205 194 155 167 226 278 255 254 261 259 257 263 268 272 280 274 261 250 237 233 236 242 246 241 231 226 230 236 240 247 255 264 270 272 269 263 254 243 235 232 231 232 236 239 244 250 258 267 273 279 284 287 289 291 293 295 296 297 297 297 298 298 296 293 291 290 289 289 290
220 216 215 213 210 208 207 209 211 213 215 217 220 217 213 214 211 204 202 203 182 177 255 279 266 263 264 267 275 281 280 279 266 248 234 222 225 233 239 241 237 233 236 244 249 254 262 270 274 275 274 266 255 243 232 226 227 230 234 241 247 253 262 271 279 285 290 293 294 295 296 297 298 299 299 298 298 298 298 296 292 289 287 285 286 287
220 220 220 209 203 202 206 211 216 217 215 215 215 212 212 212 207 210 218 220 211 173 191 247 277 263 267 278 285 287 285 274 248 234 226 221 226 232 237 241 239 236 241 252 263 269 273 276 278 275 266 254 242 233 228 228 231 237 241 247 253 261 271 281 288 295 300 302 301 299 297 297 297 297 297 297 298 298 298 296 292 288 285 283 284 284
218 219 220 210 202 206 212 217 220 222 223 225 227 225 222 218 211 205 218 222 219 215 207 170 279 269 267 273 276 277 282 282 278 269 250 233 226 224 229 238 240 238 244 257 268 272 273 275 272 261 248 240 234 232 234 236 239 244 248 252 258 267 278 288 295 300 303 306 306 304 301 300 299 297 296 297 297 296 295 294 291 287 283 281 281 281
218 218 220 219 219 220 220 223 225 225 226 229 234 235 233 228 220 213 209 218 211 216 233 210 273 269 267 270 273 276 284 285 284 251 209 199 212 219 224 234 239 241 248 257 262 263 266 269 261 250 246 241 237 238 241 244 246 249 252 256 262 273 284 292 297 299 300 302 304 304 303 301 300 298 297 296 295 294 292 291 290 287 283 281 280 280
218 219 218 218 224 225 223 226 228 227 227 227 230 233 231 228 225 221 223 230 211 212 226 199 255 265 264 264 266 270 271 258 231 186 176 175 221 237 241 244 242 244 248 250 253 256 263 265 259 254 253 246 240 240 243 246 249 251 254 259 268 280 289 294 296 296 295 296 299 301 301 299 298 297 297 296 294 292 291 290 289 286 283 282 282 282
214 214 211 202 201 224 224 228 230 228 226 227 229 230 229 228 225 222 226 231 225 228 226 200 236 257 258 260 262 259 241 227 205 185 194 310 295 288 281 261 249 248 250 249 252 258 261 259 256 253 250 245 242 243 244 247 250 254 259 268 278 286 291 292 292 290 291 293 295 297 298 297 295 295 295 294 294 292 291 289 287 285 283 284 284 285
217 214 212 202 186 201 212 217 225 225 222 223 227 228 229 228 224 224 225 221 229 239 229 216 236 251 253 256 259 249 233 235 231 252 283 301 299 299 300 280 260 256 259 259 258 257 253 248 245 245 247 248 246 245 246 251 256 263 271 279 284 288 290 288 287 287 288 290 292 295 295 294 293 293 292 292 291 291 290 289 286 283 284 284 285 286
219 219 221 219 217 222 227 227 229 229 224 224 228 229 229 229 228 227 221 219 233 240 234 234 245 253 256 255 256 255 257 265 269 276 287 293 295 297 297 286 272 264 264 263 255 244 236 234 236 240 244 248 248 250 255 262 268 274 280 283 284 284 284 284 284 285 286 288 290 292 292 292 291 290 290 289 289 289 289 288 286 284 284 285 285 285
218 220 225 228 230 235 238 236 236 239 237 235 236 235 234 233 231 227 223 231 239 235 238 247 248 252 257 257 258 262 266 272 277 282 288 290 291 293 291 286 276 262 253 248 239 229 228 232 238 244 249 252 255 259 267 273 276 279 282 283 283 283 283 283 284 285 286 287 289 291 291 290 290 289 288 288 287 287 287 287 286 285 286 286 285 285
219 223 227 230 235 240 241 239 240 242 245 246 245 244 243 239 236 233 234 242 241 232 242 254 251 253 261 264 266 268 271 276 280 283 283 283 283 282 279 276 270 258 243 233 229 229 233 240 248 254 259 262 265 268 273 278 279 280 282 283 283 283 283 284 285 285 287 288 289 290 289 288 288 287 287 287 287 286 286 286 286 287 287 288 288 288
220 227 230 232 236 241 241 241 243 244 246 248 248 249 249 247 245 245 246 250 247 243 250 257 257 260 266 268 270 273 275 277 278 278 276 276 276 274 271 267 262 256 251 248 249 252 255 259 263 267 269 270 271 272 274 277 278 279 281 282 282 282 281 282 284 286 287 288 288 287 286 285 285 286 287 287 287 286 286 287 287 288 289 289 290 290
221 227 230 232 236 241 242 242 243 244 246 247 248 249 249 250 250 249 250 251 248 247 251 255 257 261 264 266 270 273 275 274 272 272 271 271 273 274 274 271 267 262 261 261 263 265 267 268 269 272 273 272 272 272 271 273 275 276 278 279 280 281 281 283 286 287 287 286 285 283 283 283 284 285 286 287 287 287 288 288 288 288 289 289 289 290
220 225 229 231 234 241 243 242 242 244 245 246 246 246 245 245 245 246 248 251 249 250 254 254 255 259 263 267 272 272 272 273 273 274 275 276 276 277 277 277 274 272 269 267 265 265 266 267 268 270 271 271 272 271 270 271 273 275 276 278 280 282 284 286 287 286 285 284 282 281 281 281 282 284 285 286 287 288 288 288 289 289 289 289 289 290
219 223 227 227 230 240 244 244 243 243 242 241 241 241 240 241 244 247 250 254 254 255 256 254 255 261 268 272 274 273 273 276 278 279 280 280 279 277 276 276 275 273 270 267 264 263 263 265 266 268 270 270 270 270 271 273 275 276 278 280 282 284 285 285 283 282 281 280 280 280 280 281 282 283 285 286 286 287 288 288 289 289 289 289 290 290
220 223 227 226 227 238 244 245 241 227 223 242 245 246 246 246 247 250 253 256 257 257 259 261 265 269 271 272 274 276 278 280 280 281 282 281 280 278 276 276 274 272 270 268 266 265 266 267 269 269 269 269 270 271 273 275 275 277 279 281 282 282 280 279 278 278 277 277 278 279 280 281 281 282 284 285 286 287 288 288 288 289 289 289 289 290
224 223 225 225 225 234 241 236 219 213 239 250 254 255 255 255 255 255 257 259 261 261 263 265 267 268 269 270 273 276 279 280 280 280 280 279 278 278 277 276 274 272 271 271 271 271 271 271 271 270 270 270 271 273 274 275 277 280 281 280 278 275 273 273 273 274 276 276 277 278 278 279 279 281 282 283 285 285 286 287 287 288 288 288 288 289
229 227 225 224 223 228 226 209 207 243 253 254 257 258 258 258 256 254 256 258 260 262 264 265 267 268 269 270 273 276 278 278 279 278 276 275 275 276 276 276 274 273 272 272 273 273 274 275 274 274 274 274 274 275 276 279 281 280 278 273 268 266 266 268 270 272 274 275 276 277 278 279 279 280 281 281 282 283 284 285 285 286 286 286 287 288
233 231 229 226 225 229 230 231 241 255 260 256 257 258 259 259 258 257 259 263 265 265 266 267 269 269 269 270 273 276 277 277 276 274 273 273 274 273 274 274 273 273 273 273 273 273 274 275 275 276 277 277 278 279 280 280 277 272 266 262 260 260 262 265 268 270 272 273 274 276 279 280 280 280 280 280 281 281 282 283 284 285 286 286 286 287
230 230 231 230 229 231 234 242 249 249 253 255 256 258 260 261 263 264 263 265 268 268 266 267 267 268 269 271 272 274 275 274 272 271 271 272 272 271 271 271 271 272 271 272 272 272 272 273 274 276 277 279 281 281 277 272 266 261 258 257 257 259 262 265 267 268 270 272 275 278 280 281 282 282 281 281 281 281 282 283 284 285 286 286 286 286
226 226 228 227 226 226 225 230 234 232 245 253 256 259 260 259 262 260 253 261 268 269 267 266 267 270 272 273 272 271 268 267 270 272 273 273 271 270 270 270 269 270 270 270 271 272 273 273 274 276 277 277 276 273 268 262 259 257 255 255 257 260 262 264 266 269 272 275 278 280 282 282 282 282 282 282 282 283 283 284 285 286 286 287 288 288
225 226 227 226 223 220 219 223 230 232 239 247 250 251 250 250 252 239 224 253 264 266 267 267 268 273 275 273 270 266 263 264 269 272 272 272 272 271 271 271 270 271 271 271 272 272 273 273 273 272 271 269 266 264 261 258 256 255 255 256 259 261 263 266 269 272 276 278 281 282 282 282 282 282 283 283 284 285 286 287 287 288 289 290 290 290
219 224 228 229 227 225 223 226 234 237 237 238 239 241 244 243 231 223 227 248 261 267 274 275 274 275 275 274 271 268 266 267 269 270 270 271 272 272 271 272 272 271 271 271 271 271 270 267 264 262 261 260 259 259 258 258 257 258 259 261 263 265 268 270 273 276 279 281 282 283 283 283 284 284 285 286 286 287 288 289 290 290 291 292 292 292
210 216 223 228 230 231 232 234 243 249 244 240 242 249 254 248 236 242 254 262 267 272 275 275 275 275 275 274 272 269 267 267 267 267 267 267 267 268 268 269 269 269 268 267 265 263 260 258 256 255 255 256 256 256 257 257 259 261 263 265 268 269 272 274 276 278 280 281 282 283 284 284 285 286 287 287 288 288 289 290 291 291 292 292 292 292
214 209 211 221 226 229 231 229 233 249 251 251 253 257 258 254 253 260 267 270 270 271 272 273 273 272 271 271 270 268 268 267 265 264 263 263 264 265 265 265 265 264 261 258 255 254 253 253 253 253 253 254 255 256 257 258 260 263 265 268 270 272 274 276 277 279 281 282 284 285 285 286 287 288 288 289 289 290 290 291 292 292 292 293 292 292
221 213 211 220 224 220 218 222 230 246 255 261 264 262 260 262 264 266 266 265 266 268 269 270 271 271 271 271 270 270 268 265 264 264 264 263 263 262 261 261 259 256 254 252 251 251 251 251 252 252 253 255 256 257 259 260 263 266 269 272 274 276 277 278 280 282 284 286 287 287 288 288 289 290 291 291 291 292 292 292 292 292 293 293 292 293
220 222 223 227 229 227 228 236 246 254 260 265 267 264 262 264 265 265 262 262 264 265 266 268 270 271 272 272 272 271 268 265 264 264 263 262 261 259 258 257 254 252 252 252 252 252 252 252 254 256 260 265 267 268 270 272 274 276 279 282 284 284 285 286 287 288 289 289 290 290 291 291 292 292 293 293 293 293 293 293 293 293 294 294 294 294
228 232 235 236 236 238 241 247 253 257 258 260 261 261 260 260 261 262 260 259 261 263 265 267 269 270 272 272 271 268 264 261 258 256 255 254 252 250 249 248 248 249 251 253 257 260 263 266 270 272 276 280 283 284 285 286 287 287 288 289 290 290 291 291 291 291 291 291 292 292 292 292 292 292 292 293 293 293 293 294 294 294 294 295 295 295
237 239 239 239 240 240 243 248 251 252 253 255 255 256 257 258 259 259 258 256 257 258 260 261 262 263 262 262 260 256 253 251 248 246 247 248 249 251 254 257 260 263 265 269 273 277 281 284 285 285 286 286 287 287 287 287 287 288 288 289 289 290 290 290 290 290 290 291 291 291 291 292 291 291 291 292 292 292 293 293 293 293 294 294 294 294
241 241 239 238 240 242 243 246 249 249 250 251 252 254 254 254 255 255 255 253 251 250 252 253 254 254 255 256 254 252 254 259 261 265 270 274 278 281 283 284 284 283 282 283 284 285 286 287 286 285 284 284 284 284 284 284 284 285 286 286 287 287 288 288 288 288 289 290 291 291 291 292 292 292 292 292 292 293 293 292 292 292 293 294 294 293
242 242 241 241 241 240 240 242 245 247 248 250 252 253 252 251 252 252 250 251 251 253 256 258 260 263 265 267 267 268 272 276 279 283 286 289 290 291 290 289 288 286 285 285 285 285 285 284 284 283 283 282 283 284 285 285 286 287 287 287 287 288 288 289 289 290 290 291 292 292 293 293 294 294 294 294 294 293 293 293 293 292 292 292 292 291
242 242 242 240 238 239 243 246 247 249 251 252 252 252 250 251 256 259 261 262 265 267 269 270 272 273 275 277 278 279 281 283 284 286 287 288 288 287 285 284 283 282 282 283 283 283 283 284 284 284 284 285 285 286 287 289 290 290 290 290 291 291 291 291 291 291 291 292 292 293 294 294 294 294 295 295 294 294 293 293 292 292 292 292 291 290
241 242 242 242 243 246 249 250 250 251 252 252 253 254 256 260 265 269 270 271 272 272 274 275 276 277 277 278 278 278 279 279 280 280 279 279 279 280 280 280 281 281 282 283 284 285 287 287 288 289 289 290 291 291 292 292 293 293 293 294 294 294 294 294 294 293 293 293 294 294 294 294 294 294 294 294 294 294 294 293 292 292 291 291 291 290
Height
3135 3135 3135 3135 3137 3140 3143 3145 3146 3147 3148 3150 3151 3152 3152 3153 3154 3155 3155 3156 3156 3156 3157 3157 3157 3156 3158 3159 3160 3160 3159 3160 3161 3162 3163 3165 3165 3166 3167 3167 3168 3168 3170 3170 3169 3169 3170 3170 3170 3171 3171 3172 3172 3173 3173 3173 3174 3174 3174 3174 3174 3174 3174 3174 3174 3175 3175 3175 3176 3176 3176 3176 3176 3176 3176 3177 3177 3177 3177 3177 3177 3177 3178 3178 3178 3177
3133 3132 3133 3136 3139 3142 3143 3144 3145 3146 3147 3149 3150 3150 3151 3152 3153 3153 3154 3154 3155 3155 3155 3155 3155 3154 3155 3157 3157 3158 3157 3157 3159 3160 3162 3163 3164 3164 3165 3165 3166 3167 3167 3168 3168 3168 3168 3168 3168 3169 3169 3170 3171 3171 3171 3172 3172 3172 3172 3172 3172 3172 3172 3172 3173 3173 3173 3173 3173 3173 3173 3173 3173 3173 3173 3174 3174 3175 3175 3175 3175 3176 3176 3176 3176 3175
3130 3130 3133 3137 3139 3140 3141 3142 3143 3145 3146 3147 3148 3149 3150 3150 3151 3152 3153 3153 3154 3154 3154 3154 3153 3152 3153 3154 3155 3155 3155 3155 3157 3158 3159 3161 3161 3162 3163 3164 3164 3165 3165 3166 3166 3166 3166 3166 3166 3166 3167 3168 3169 3169 3169 3170 3170 3170 3170 3170 3170 3170 3170 3170 3170 3170 3171 3171 3171 3171 3171 3171 3170 3171 3171 3171 3171 3172 3172 3172 3172 3172 3172 3172 3172 3172
3127 3129 3134 3136 3136 3138 3139 3140 3142 3143 3144 3146 3147 3148 3148 3149 3150 3151 3151 3152 3153 3153 3152 3152 3151 3149 3150 3151 3152 3154 3153 3153 3155 3156 3157 3158 3159 3161 3162 3162 3162 3163 3163 3164 3164 3164 3164 3164 3164 3165 3165 3166 3166 3167 3167 3168 3168 3168 3169 3168 3168 3168 3168 3168 3168 3168 3168 3168 3168 3168 3169 3169 3169 3169 3169 3169 3169 3169 3169 3169 3168 3168 3168 3168 3168 3168
3127 3130 3133 3133 3134 3136 3137 3139 3140 3142 3143 3145 3146 3147 3147 3149 3150 3150 3151 3151 3151 3151 3151 3151 3149 3146 3146 3148 3149 3151 3151 3151 3153 3154 3155 3156 3157 3158 3159 3160 3160 3160 3161 3161 3162 3162 3162 3162 3162 3163 3163 3164 3164 3165 3165 3165 3166 3166 3166 3166 3166 3166 3166 3166 3166 3166 3166 3166 3167 3167 3167 3167 3167 3167 3167 3167 3167 3167 3166 3166 3166 3165 3165 3165 3164 3165
3127 3130 3131 3131 3132 3134 3135 3137 3139 3141 3142 3143 3144 3145 3147 3148 3148 3149 3150 3150 3150 3150 3150 3151 3150 3144 3143 3145 3147 3148 3149 3150 3150 3151 3153 3154 3155 3155 3156 3157 3157 3158 3158 3159 3159 3159 3159 3160 3160 3160 3161 3161 3162 3162 3163 3163 3163 3164 3164 3164 3164 3164 3164 3164 3164 3164 3164 3165 3165 3165 3165 3165 3165 3165 3165 3165 3165 3165 3164 3164 3164 3164 3164 3163 3163 3162
3125 3127 3128 3129 3131 3132 3134 3135 3137 3139 3141 3142 3143 3144 3145 3146 3147 3148 3149 3149 3149 3149 3148 3150 3150 3145 3141 3142 3144 3145 3146 3147 3148 3149 3151 3152 3152 3152 3153 3154 3154 3155 3155 3155 3156 3156 3156 3157 3157 3158 3158 3159 3159 3159 3160 3160 3161 3161 3162 3162 3162 3162 3162 3162 3162 3163 3163 3163 3163 3163 3163 3163 3163 3163 3163 3163 3163 3162 3162 3162 3162 3162 3162 3162 3161 3160
3122 3124 3126 3128 3129 3131 3132 3134 3136 3138 3140 3141 3141 3143 3145 3145 3146 3147 3148 3148 3148 3148 3148 3148 3149 3147 3140 3138 3141 3143 3143 3144 3146 3147 3149 3149 3149 3149 3150 3151 3152 3152 3152 3152 3153 3153 3154 3154 3155 3155 3155 3156 3157 3157 3158 3159 3159 3159 3160 3160 3160 3160 3160 3161 3161 3161 3161 3161 3161 3161 3161 3161 3161 3161 3161 3161 3160 3160 3160 3161 3160 3160 3160 3159 3158 3158
3122 3123 3125 3127 3128 3129 3130 3133 3135 3137 3138 3139 3141 3142 3143 3144 3145 3146 3147 3147 3147 3147 3146 3145 3147 3148 3140 3135 3138 3139 3139 3141 3143 3145 3146 3146 3146 3147 3147 3148 3149 3149 3149 3150 3150 3151 3151 3152 3152 3152 3153 3154 3154 3155 3156 3157 3157 3157 3158 3158 3158 3158 3158 3158 3159 3159 3159 3159 3159 3159 3159 3159 3159 3159 3159 3158 3158 3158 3158 3158 3158 3158 3157 3157 3156 3155
3121 3123 3124 3126 3127 3128 3130 3132 3134 3135 3137 3138 3140 3141 3142 3144 3144 3145 3146 3146 3147 3145 3143 3144 3146 3146 3138 3132 3135 3136 3135 3139 3141 3142 3142 3143 3144 3144 3144 3145 3145 3146 3147 3147 3148 3148 3148 3148 3149 3149 3150 3151 3152 3153 3154 3154 3155 3155 3155 3156 3156 3156 3156 3156 3156 3156 3157 3157 3157 3157 3157 3157 3157 3156 3157 3157 3157 3156 3156 3156 3156 3155 3155 3154 3154 3153
3120 3122 3123 3123 3125 3126 3129 3131 3132 3134 3135 3137 3138 3139 3141 3143 3143 3145 3144 3145 3146 3143 3141 3142 3143 3145 3138 3129 3131 3133 3134 3136 3138 3138 3139 3140 3141 3141 3141 3142 3142 3143 3144 3144 3144 3145 3145 3146 3146 3147 3148 3149 3150 3151 3152 3152 3153 3153 3153 3154 3154 3154 3154 3154 3154 3154 3154 3154 3154 3154 3154 3155 3155 3154 3155 3155 3155 3154 3154 3154 3154 3153 3153 3152 3151 3150
3118 3119 3120 3121 3123 3124 3127 3129 3131 3132 3133 3135 3136 3137 3140 3142 3143 3144 3143 3145 3145 3141 3139 3140 3141 3143 3136 3127 3128 3131 3132 3134 3135 3136 3137 3137 3138 3138 3138 3139 3139 3140 3140 3141 3141 3142 3143 3143 3144 3145 3146 3147 3148 3149 3150 3150 3151 3151 3151 3151 3152 3152 3152 3152 3152 3152 3152 3152 3152 3152 3152 3152 3152 3152 3153 3153 3153 3152 3152 3152 3151 3151 3150 3149 3148 3147
3115 3117 3118 3120 3121 3123 3125 3126 3128 3130 3131 3132 3134 3136 3139 3141 3143 3143 3143 3144 3142 3139 3138 3139 3140 3138 3128 3123 3127 3130 3131 3132 3133 3134 3134 3134 3135 3135 3136 3136 3137 3138 3138 3139 3139 3140 3141 3141 3142 3144 3144 3145 3146 3147 3148 3148 3149 3149 3149 3149 3149 3149 3150 3150 3150 3150 3150 3150 3150 3150 3150 3150 3150 3151 3151 3151 3151 3150 3150 3150 3149 3148 3147 3146 3145 3144
3114 3116 3116 3117 3118 3120 3122 3123 3124 3125 3128 3130 3132 3134 3136 3139 3142 3142 3143 3143 3139 3137 3137 3139 3140 3133 3122 3121 3125 3126 3128 3129 3129 3131 3132 3132 3133 3133 3134 3135 3135 3136 3136 3137 3138 3138 3139 3140 3141 3142 3143 3144 3144 3145 3146 3146 3146 3146 3146 3147 3147 3147 3148 3147 3147 3148 3148 3148 3148 3148 3149 3149 3149 3149 3149 3149 3148 3148 3148 3147 3146 3145 3144 3143 3142 3141
3111 3111 3111 3113 3115 3117 3119 3121 3123 3124 3127 3128 3130 3132 3131 3133 3135 3136 3138 3137 3135 3135 3136 3138 3137 3127 3120 3121 3122 3123 3126 3126 3127 3129 3130 3131 3132 3132 3133 3133 3134 3134 3135 3136 3136 3136 3137 3138 3139 3140 3141 3142 3142 3143 3143 3143 3144 3144 3144 3144 3145 3145 3145 3145 3146 3146 3146 3146 3146 3146 3147 3147 3147 3147 3147 3147 3146 3146 3145 3144 3143 3142 3141 3140 3139 3138
3107 3107 3107 3110 3113 3115 3118 3120 3123 3125 3126 3127 3128 3129 3129 3129 3130 3132 3134 3133 3134 3135 3135 3134 3129 3120 3119 3120 3120 3122 3124 3125 3127 3128 3129 3130 3130 3131 3132 3132 3133 3133 3133 3134 3134 3134 3135 3136 3137 3138 3139 3140 3140 3140 3141 3141 3142 3142 3142 3143 3143 3143 3143 3144 3144 3144 3144 3144 3144 3145 3145 3145 3145 3145 3145 3144 3144 3143 3142 3141 3140 3139 3138 3137 3136 3135
3104 3105 3106 3109 3111 3114 3117 3119 3121 3122 3123 3124 3125 3125 3125 3128 3129 3130 3132 3132 3134 3134 3130 3127 3122 3117 3118 3118 3117 3120 3121 3123 3126 3126 3128 3129 3129 3130 3131 3131 3131 3131 3131 3132 3132 3133 3133 3134 3135 3136 3137 3138 3138 3138 3139 3139 3140 3140 3140 3141 3141 3141 3141 3142 3142 3142 3142 3142 3142 3142 3142 3142 3142 3142 3142 3142 3141 3140 3139 3138 3137 3136 3134 3133 3132 3131
3101 3103 3104 3107 3109 3111 3114 3117 3118 3119 3120 3121 3121 3122 3124 3127 3128 3129 3131 3132 3135 3133 3126 3121 3118 3116 3117 3115 3113 3116 3117 3120 3123 3124 3126 3127 3128 3129 3130 3130 3130 3130 3130 3130 3130 3131 3132 3133 3134 3135 3135 3135 3136 3136 3136 3137 3137 3137 3138 3138 3138 3139 3139 3139 3139 3139 3140 3140 3140 3140 3140 3140 3139 3139 3139 3138 3137 3136 3135 3134 3133 3132 3131 3130 3129 3128
3100 3102 3103 3105 3108 3110 3112 3114 3115 3116 3117 3117 3118 3120 3123 3125 3125 3126 3128 3129 3131 3132 3126 3118 3115 3113 3112 3111 3111 3114 3116 3118 3121 3122 3124 3125 3127 3128 3128 3128 3128 3128 3128 3128 3128 3130 3130 3131 3132 3132 3132 3132 3133 3133 3133 3134 3134 3135 3135 3135 3136 3136 3136 3137 3137 3137 3138 3138 3138 3137 3137 3137 3137 3136 3135 3134 3133 3132 3131 3130 3129 3128 3127 3126 3125 3124
3098 3100 3102 3103 3105 3108 3109 3110 3110 3110 3112 3114 3117 3119 3121 3122 3122 3123 3125 3124 3124 3128 3125 3118 3113 3109 3106 3107 3110 3112 3113 3115 3118 3119 3121 3123 3125 3126 3126 3126 3126 3126 3125 3126 3127 3128 3129 3130 3129 3129 3130 3130 3130 3130 3130 3131 3131 3132 3133 3133 3133 3133 3134 3134 3135 3135 3135 3135 3135 3135 3134 3134 3133 3132 3132 3130 3130 3128 3128 3127 3125 3124 3123 3122 3121 3119
3096 3098 3099 3101 3103 3105 3105 3104 3103 3104 3107 3110 3113 3116 3117 3119 3120 3121 3122 3121 3121 3124 3124 3120 3112 3104 3104 3107 3108 3110 3112 3113 3115 3117 3119 3121 3123 3123 3124 3123 3124 3124 3123 3124 3125 3126 3126 3126 3126 3127 3127 3127 3127 3127 3128 3129 3129 3129 3130 3130 3130 3130 3131 3131 3131 3131 3132 3132 3132 3131 3131 3130 3130 3129 3128 3127 3126 3124 3124 3122 3121 3120 3118 3117 3117 3115
3093 3095 3097 3098 3099 3100 3100 3101 3102 3105 3107 3109 3110 3111 3112 3114 3116 3118 3119 3117 3118 3119 3120 3120 3111 3100 3101 3107 3107 3108 3110 3111 3113 3115 3116 3118 3120 3120 3121 3121 3122 3122 3122 3122 3123 3123 3123 3123 3124 3124 3124 3124 3124 3125 3125 3126 3127 3127 3127 3127 3127 3128 3128 3128 3127 3127 3127 3127 3127 3127 3127 3126 3126 3125 3124 3123 3122 3120 3119 3118 3117 3115 3114 3113 3112 3111
3090 3093 3094 3096 3097 3098 3099 3101 3102 3104 3106 3108 3108 3109 3110 3111 3110 3111 3112 3111 3115 3117 3116 3119 3113 3097 3098 3106 3105 3106 3108 3108 3111 3112 3113 3116 3117 3119 3120 3120 3121 3121 3120 3120 3120 3121 3121 3121 3122 3122 3121 3122 3122 3123 3124 3124 3124 3124 3124 3124 3125 3125 3125 3124 3123 3123 3123 3123 3123 3123 3123 3122 3122 3121 3119 3118 3117 3116 3115 3114 3112 3111 3109 3108 3107 3106
3087 3090 3091 3093 3095 3097 3098 3099 3100 3102 3104 3103 3103 3103 3105 3106 3106 3108 3109 3110 3113 3114 3113 3118 3113 3096 3095 3103 3103 3104 3107 3107 3110 3111 3113 3115 3116 3118 3119 3119 3120 3119 3119 3119 3118 3119 3119 3119 3120 3120 3120 3121 3121 3122 3122 3121 3121 3121 3121 3122 3121 3121 3121 3120 3120 3120 3120 3120 3120 3119 3119 3118 3117 3116 3114 3113 3112 3111 3110 3109 3108 3106 3105 3104 3103 3101
3081 3084 3086 3090 3094 3095 3097 3098 3097 3097 3097 3096 3096 3097 3099 3101 3104 3107 3109 3110 3111 3109 3109 3114 3107 3093 3093 3100 3100 3102 3105 3106 3109 3111 3112 3114 3115 3116 3118 3118 3118 3117 3117 3117 3117 3117 3117 3118 3118 3118 3119 3119 3119 3119 3118 3118 3118 3118 3118 3118 3118 3118 3118 3117 3116 3116 3116 3116 3116 3115 3115 3114 3112 3111 3110 3108 3107 3106 3105 3104 3103 3102 3100 3099 3098 3097
3076 3078 3079 3083 3086 3087 3088 3087 3084 3084 3087 3089 3090 3093 3095 3098 3102 3104 3107 3109 3108 3105 3105 3105 3098 3090 3093 3098 3098 3101 3103 3105 3107 3109 3110 3112 3113 3114 3116 3116 3116 3116 3115 3115 3115 3115 3115 3116 3116 3116 3116 3116 3116 3115 3115 3115 3115 3116 3115 3115 3115 3115 3114 3113 3113 3113 3113 3112 3111 3111 3110 3109 3108 3106 3105 3104 3102 3101 3100 3099 3098 3097 3096 3095 3094 3093
3073 3074 3074 3075 3075 3075 3076 3076 3077 3079 3084 3086 3087 3090 3092 3095 3098 3102 3105 3104 3101 3100 3100 3097 3094 3090 3090 3094 3097 3098 3101 3103 3105 3106 3108 3109 3110 3111 3113 3113 3114 3114 3113 3113 3113 3113 3114 3114 3114 3114 3114 3113 3113 3112 3112 3113 3113 3113 3112 3112 3111 3111 3110 3109 3109 3109 3108 3108 3107 3107 3106 3104 3103 3101 3100 3099 3098 3096 3095 3094 3093 3092 3091 3090 3089 3088
3069 3069 3071 3072 3071 3072 3074 3076 3078 3080 3082 3084 3086 3087 3089 3092 3095 3097 3097 3095 3096 3098 3093 3089 3091 3089 3085 3089 3095 3097 3099 3101 3102 3104 3105 3107 3107 3109 3110 3111 3111 3111 3110 3110 3111 3111 3112 3112 3111 3111 3110 3110 3109 3109 3109 3109 3109 3109 3108 3107 3107 3107 3106 3105 3104 3104 3104 3103 3103 3102 3100 3099 3097 3096 3095 3094 3093 3092 3090 3089 3088 3087 3087 3086 3084 3083
3065 3065 3067 3069 3069 3070 3073 3075 3076 3078 3079 3081 3083 3085 3086 3089 3090 3090 3090 3090 3091 3091 3084 3083 3089 3087 3082 3086 3093 3095 3098 3100 3101 3102 3103 3104 3105 3107 3108 3109 3109 3109 3109 3109 3109 3109 3109 3108 3107 3107 3107 3106 3105 3105 3105 3105 3104 3103 3103 3102 3102 3101 3100 3100 3100 3099 3099 3099 3098 3096 3095 3093 3092 3091 3090 3089 3088 3087 3086 3085 3084 3083 3082 3081 3079 3078
3062 3062 3064 3066 3066 3067 3070 3072 3073 3075 3076 3078 3079 3081 3083 3085 3086 3085 3085 3085 3085 3083 3082 3084 3087 3083 3080 3084 3089 3093 3096 3098 3099 3100 3100 3101 3103 3104 3105 3106 3107 3107 3108 3108 3108 3107 3106 3105 3103 3103 3103 3102 3101 3101 3100 3100 3099 3098 3098 3097 3097 3097 3096 3096 3096 3095 3094 3093 3092 3091 3089 3088 3087 3086 3085 3084 3083 3082 3081 3080 3079 3078 3077 3075 3074 3073
3058 3059 3061 3063 3063 3063 3065 3068 3070 3071 3072 3073 3076 3078 3080 3080 3081 3079 3078 3079 3080 3080 3082 3085 3083 3077 3075 3081 3086 3090 3092 3093 3094 3095 3097 3099 3100 3100 3101 3101 3103 3104 3105 3105 3105 3103 3101 3100 3098 3097 3097 3097 3097 3097 3096 3095 3095 3094 3094 3093 3093 3092 3092 3092 3091 3090 3089 3088 3086 3085 3084 3083 3082 3081 3080 3079 3078 3077 3076 3075 3074 3073 3072 3071 3069 3068
3055 3056 3057 3060 3060 3059 3061 3063 3065 3066 3068 3069 3070 3073 3074 3073 3072 3071 3071 3074 3077 3079 3080 3082 3078 3072 3072 3079 3084 3086 3086 3087 3089 3091 3093 3095 3096 3096 3096 3096 3097 3098 3099 3099 3099 3096 3095 3094 3093 3092 3092 3092 3092 3092 3092 3091 3091 3090 3089 3089 3088 3087 3086 3086 3085 3084 3083 3082 3081 3080 3079 3078 3077 3076 3075 3074 3073 3072 3071 3070 3069 3068 3067 3065 3064 3063
3051 3052 3053 3056 3056 3055 3057 3059 3060 3064 3065 3063 3062 3065 3066 3066 3066 3067 3069 3072 3074 3075 3075 3074 3072 3071 3073 3077 3078 3079 3081 3082 3084 3086 3088 3089 3091 3091 3090 3090 3090 3091 3092 3091 3091 3090 3089 3088 3088 3087 3087 3087 3087 3087 3086 3086 3085 3085 3084 3083 3083 3082 3081 3080 3079 3078 3077 3077 3076 3075 3074 3073 3072 3071 3070 3069 3068 3067 3066 3064 3063 3062 3061 3060 3059 3058
3047 3049 3050 3052 3053 3054 3054 3055 3058 3060 3057 3054 3056 3060 3061 3062 3063 3065 3066 3067 3069 3070 3069 3069 3069 3071 3073 3073 3072 3073 3076 3078 3080 3081 3082 3083 3084 3084 3084 3084 3084 3084 3084 3084 3084 3084 3083 3083 3083 3082 3082 3082 3082 3082 3081 3080 3080 3079 3079 3078 3077 3076 3075 3074 3073 3073 3072 3072 3071 3070 3069 3068 3067 3066 3065 3064 3062 3061 3060 3059 3058 3057 3056 3054 3053 3052
3044 3046 3047 3048 3050 3051 3051 3053 3055 3053 3049 3050 3054 3056 3057 3058 3060 3061 3061 3062 3064 3065 3065 3065 3066 3067 3068 3068 3069 3070 3071 3072 3074 3075 3076 3076 3076 3077 3077 3078 3077 3077 3077 3077 3077 3077 3077 3077 3077 3077 3077 3077 3076 3076 3075 3074 3074 3073 3072 3072 3071 3070 3070 3069 3068 3068 3067 3067 3066 3065 3064 3063 3062 3061 3060 3059 3057 3056 3055 3054 3052 3051 3050 3049 3047 3046
3041 3042 3043 3045 3047 3048 3048 3048 3047 3044 3045 3048 3050 3050 3051 3052 3054 3056 3054 3055 3058 3061 3060 3060 3061 3062 3063 3065 3066 3067 3066 3067 3068 3068 3069 3069 3070 3070 3070 3070 3071 3071 3071 3071 3071 3071 3071 3071 3071 3070 3070 3070 3070 3070 3069 3068 3067 3066 3066 3066 3065 3065 3064 3064 3063 3063 3062 3061 3061 3060 3059 3058 3057 3056 3055 3053 3052 3051 3049 3048 3047 3045 3044 3043 3041 3040
3037 3038 3040 3041 3041 3043 3043 3041 3041 3042 3043 3043 3043 3045 3045 3045 3047 3050 3049 3048 3053 3056 3055 3056 3056 3057 3058 3060 3062 3063 3062 3062 3061 3061 3062 3063 3064 3065 3064 3063 3064 3064 3064 3065 3065 3065 3065 3065 3064 3063 3063 3063 3063 3063 3062 3062 3061 3061 3060 3060 3060 3059 3059 3059 3058 3058 3057 3057 3056 3055 3053 3052 3051 3050 3049 3048 3047 3045 3044 3043 3041 3040 3038 3036 3035 3034
3032 3033 3036 3037 3037 3038 3040 3039 3040 3041 3038 3035 3037 3039 3040 3040 3043 3046 3045 3043 3045 3049 3050 3050 3051 3052 3054 3055 3057 3058 3058 3056 3053 3053 3056 3058 3059 3058 3058 3058 3058 3058 3058 3059 3059 3059 3059 3058 3058 3057 3057 3057 3056 3056 3056 3056 3056 3056 3056 3055 3055 3054 3054 3054 3053 3053 3052 3052 3051 3050 3049 3047 3046 3044 3043 3042 3041 3040 3039 3038 3036 3035 3033 3031 3030 3029
3028 3029 3032 3032 3032 3034 3036 3035 3035 3033 3031 3032 3034 3035 3037 3037 3039 3042 3041 3038 3038 3041 3043 3045 3047 3048 3049 3051 3052 3053 3053 3050 3047 3048 3051 3052 3053 3052 3052 3053 3053 3053 3053 3053 3053 3053 3053 3052 3052 3051 3051 3051 3051 3051 3051 3051 3051 3051 3051 3050 3050 3050 3049 3049 3048 3048 3047 3047 3046 3045 3043 3042 3040 3039 3037 3036 3036 3034 3033 3032 3031 3029 3027 3026 3024 3023
3022 3024 3025 3026 3026 3028 3029 3029 3028 3027 3028 3030 3031 3031 3033 3034 3036 3039 3037 3033 3032 3035 3038 3041 3043 3044 3045 3046 3046 3047 3046 3045 3044 3045 3045 3046 3046 3047 3047 3047 3047 3047 3047 3047 3047 3047 3047 3047 3047 3046 3046 3046 3046 3046 3046 3046 3046 3046 3045 3045 3045 3044 3044 3044 3043 3042 3042 3041 3040 3039 3037 3036 3034 3033 3032 3030 3029 3028 3027 3025 3024 3022 3021 3019 3017 3016
3016 3018 3019 3020 3021 3023 3024 3023 3022 3022 3023 3026 3027 3028 3030 3033 3033 3032 3029 3028 3030 3032 3034 3037 3039 3039 3041 3041 3042 3042 3042 3042 3042 3041 3041 3041 3041 3041 3041 3041 3042 3042 3042 3042 3042 3042 3042 3042 3042 3042 3042 3042 3042 3042 3041 3041 3041 3041 3040 3040 3039 3039 3038 3038 3037 3036 3035 3034 3033 3032 3031 3030 3028 3027 3026 3024 3022 3021 3020 3018 3016 3015 3013 3011 3010 3008
3010 3012 3014 3016 3018 3019 3020 3020 3020 3018 3019 3022 3024 3024 3026 3028 3027 3025 3025 3027 3029 3029 3030 3032 3033 3035 3036 3037 3037 3038 3037 3038 3038 3037 3037 3037 3036 3036 3037 3037 3037 3037 3037 3037 3037 3038 3038 3038 3038 3037 3037 3037 3037 3036 3036 3036 3035 3035 3034 3034 3033 3033 3032 3031 3030 3029 3029 3028 3027 3026 3025 3023 3022 3020 3019 3017 3015 3014 3013 3011 3009 3007 3005 3003 3001 2999
3005 3008 3009 3010 3012 3015 3016 3017 3017 3015 3014 3017 3019 3020 3020 3021 3021 3022 3024 3025 3025 3025 3026 3027 3028 3030 3031 3031 3032 3033 3033 3033 3033 3033 3033 3033 3032 3032 3032 3032 3032 3033 3033 3034 3034 3034 3034 3034 3034 3033 3033 3032 3032 3031 3030 3030 3029 3029 3028 3027 3027 3026 3026 3025 3024 3023 3022 3021 3020 3019 3018 3017 3015 3014 3012 3011 3009 3007 3005 3004 3001 2999 2998 2995 2993 2991
3000 3002 3003 3004 3006 3008 3009 3010 3010 3010 3012 3014 3014 3015 3015 3016 3017 3019 3021 3021 3021 3022 3022 3022 3023 3025 3026 3026 3027 3028 3028 3029 3028 3028 3028 3028 3028 3028 3028 3028 3029 3029 3029 3030 3030 3030 3031 3031 3030 3030 3028 3027 3027 3026 3025 3024 3023 3023 3022 3022 3021 3021 3020 3019 3018 3017 3016 3015 3013 3012 3011 3010 3008 3007 3005 3003 3001 2999 2998 2996 2993 2992 2990 2988 2985 2983
2996 2997 2998 3000 3002 3003 3003 3005 3007 3009 3011 3011 3010 3010 3011 3012 3014 3016 3017 3018 3018 3018 3018 3019 3019 3020 3021 3022 3022 3023 3023 3024 3024 3024 3024 3024 3024 3024 3025 3025 3025 3025 3026 3026 3026 3026 3027 3027 3027 3027 3025 3024 3022 3021 3020 3019 3018 3017 3016 3016 3015 3014 3013 3012 3011 3010 3009 3007 3006 3005 3003 3002 3001 2999 2997 2995 2993 2991 2990 2988 2985 2984 2982 2979 2977 2974
2993 2995 2996 2998 2999 2999 3001 3002 3004 3006 3007 3007 3007 3007 3008 3009 3010 3012 3013 3015 3015 3015 3016 3016 3016 3016 3017 3017 3018 3018 3019 3019 3020 3020 3020 3020 3021 3021 3021 3022 3022 3022 3022 3022 3022 3022 3023 3022 3022 3022 3021 3020 3018 3017 3016 3014 3012 3011 3010 3009 3008 3007 3006 3005 3004 3003 3001 3000 2999 2997 2995 2994 2993 2991 2989 2988 2986 2983 2982 2979 2976 2974 2973 2970 2968 2965
2991 2992 2993 2994 2996 2996 2996 2998 3000 3002 3003 3003 3004 3004 3005 3006 3007 3009 3010 3011 3012 3013 3013 3013 3013 3013 3014 3014 3014 3015 3015 3016 3016 3017 3017 3018 3018 3018 3019 3019 3018 3018 3018 3018 3018 3018 3017 3017 3017 3016 3016 3015 3013 3012 3011 3009 3008 3006 3005 3003 3002 3001 3000 2999 2997 2996 2994 2992 2991 2990 2988 2986 2985 2983 2981 2980 2978 2975 2974 2971 2968 2965 2963 2961 2958 2955
2987 2988 2989 2990 2991 2992 2993 2994 2996 2997 2998 2999 3000 3001 3002 3003 3004 3006 3007 3008 3009 3010 3010 3010 3011 3011 3011 3011 3012 3012 3012 3013 3013 3013 3013 3014 3014 3014 3015 3014 3014 3014 3014 3013 3013 3013 3012 3012 3011 3011 3010 3009 3008 3007 3006 3005 3003 3002 3000 2998 2997 2995 2994 2993 2991 2989 2988 2985 2983 2982 2980 2978 2976 2974 2972 2971 2968 2966 2964 2962 2959 2956 2954 2952 2949 2945
2983 2984 2985 2986 2987 2988 2989 2991 2992 2992 2993 2995 2997 2998 2999 3000 3001 3003 3004 3005 3006 3006 3007 3008 3008 3008 3008 3009 3009 3009 3009 3008 3008 3008 3008 3008 3009 3009 3009 3009 3009 3009 3009 3008 3008 3008 3007 3007 3006 3005 3004 3003 3002 3001 3000 2999 2997 2996 2994 2992 2991 2989 2987 2985 2984 2982 2980 2978 2975 2973 2971 2969 2967 2964 2962 2960 2958 2956 2954 2952 2950 2946 2945 2945 2942 2936
2977 2978 2980 2981 2982 2982 2984 2986 2988 2989 2990 2993 2994 2995 2996 2996 2997 2999 3000 3001 3002 3003 3003 3004 3004 3004 3005 3005 3005 3005 3005 3005 3004 3004 3004 3004 3004 3004 3004 3004 3004 3004 3003 3003 3003 3002 3002 3001 3000 2999 2998 2997 2996 2995 2994 2993 2991 2989 2987 2985 2983 2981 2979 2977 2975 2974 2972 2969 2967 2964 2962 2960 2958 2956 2953 2950 2948 2946 2944 2944 2942 2938 2934 2934 2934 2930
2971 2973 2975 2976 2977 2978 2981 2984 2985 2986 2987 2989 2990 2990 2991 2992 2993 2994 2995 2996 2997 2998 2999 2999 3000 3000 3000 3001 3001 3001 3001 3001 3001 3001 3000 3000 3000 3000 2999 2999 2999 2998 2998 2997 2997 2996 2996 2995 2994 2993 2992 2990 2989 2988 2987 2985 2984 2982 2980 2978 2976 2973 2970 2967 2965 2964 2962 2960 2958 2956 2953 2951 2949 2946 2944 2941 2938 2935 2933 2932 2933 2931 2928 2924 2922 2921